Regional Weather Roundup
Issued by NWS State College, PA

Home | Current Version | Previous Version | Graphics & Text | Print | Product List | Glossary Off
Versions: 1 2 3 4 5 6 7 8 9 10 11 12 13 14 15 16 17 18 19 20 21 22 23 24 25 26 27 28 29 30 31 32 33 34 35 36 37 38 39 40 41 42 43 44 45 46 47 48 49 50

306
ASUS41 KCTP 061510
RWRCTP

REGIONAL WEATHER ROUNDUP
NATIONAL WEATHER SERVICE STATE COLLEGE PA
1000 AM EST SAT FEB 06 2016

Note: "fair" indicates few or no clouds below 12,000 feet with no
significant weather and/or obstructions to visibility.

* = STATION THAT DOES NOT REPORT PRECIPITATION /E.G. RAIN...SNOW...ETC/
    THUNDER OR FOG.

PAZ002>004-007>009-013>016-020>023-029>032-061600-
WESTERN PENNSYLVANIA

CITY           SKY/WX    TMP DP  RH WIND       PRES   REMARKS
ERIE           CLOUDY    33  22  63 SW12      30.29R
MEADVILLE      MOSUNNY   30  21  69 W10       30.26S
FRANKLIN*      SUNNY     34  18  51 W9        30.28S
NEW CASTLE     FAIR      34  19  54 SW5       30.30S
BEAVER COUNTY  SUNNY     34  18  51 SW9       30.29S
BUTLER*        MOSUNNY   34  18  51 SW10      30.33S
PITTSBURGH INT MOSUNNY   33  15  47 SW10      30.30S
PITTSBURGH     CLOUDY    35  17  47 S8        30.30S
INDIANA*       PTSUNNY   36  21  55 W10       30.33S
LATROBE        PTSUNNY   34  19  55 SW12      30.32F
WASHINGTON CO* MOSUNNY   36  18  48 SW9       30.31S
$$

PAZ004>006-010>012-017>019-024>028-033>037-041-042-045-046-049>053-061600-
CENTRAL PENNSYLVANIA

CITY           SKY/WX    TMP DP  RH WIND       PRES   REMARKS
BRADFORD       CLOUDY    29  16  58 VRB6G17   30.21S
DUBOIS         CLOUDY    31  16  54 SW13      30.25S
CLEARFIELD     CLOUDY    27  19  72 SW6       30.29F
JOHNSTOWN      CLOUDY    29  14  53 SW8       30.25F
ALTOONA        CLOUDY    32  19  58 S12       30.32F
STATE COLLEGE  CLOUDY    28  21  74 CALM      30.32F
WILLIAMSPORT   CLOUDY    27  20  75 CALM      30.36F
SELINSGROVE    CLOUDY    32  23  69 S7        30.39F
FT INDIANTOWN  CLOUDY    30  21  69 CALM      30.41F
CAPITAL CITY   CLOUDY    34  18  52 E3        30.42S
HARRISBURG     CLOUDY    36  20  52 SW3       30.41F
YORK           MOSUNNY   34  23  64 CALM      30.41F
$$

PAZ038>040-043-044-047-048-054-055-060>062-067>071-061600-
EASTERN PENNSYLVANIA

CITY           SKY/WX    TMP DP  RH WIND       PRES   REMARKS
SCRANTON       CLOUDY    29  19  66 SW3       30.34F
MOUNT POCONO   SUNNY     29  15  56 W6        30.30S
ALLENTOWN      CLOUDY    33  21  61 CALM      30.42F
QUAKERTOWN*    CLOUDY    32  21  64 SW3       30.42F
READING        MOSUNNY   32  20  61 CALM      30.42F
LANCASTER      CLOUDY    29  21  72 E3        30.42F
COATESVILLE    MOSUNNY   34  21  60 VRB5      30.43S
POTTSTOWN      MOSUNNY   32  22  66 CALM      30.44F
BLUE BELL        N/A     34  21  60 CALM      30.43F
DOYLESTOWN     MOSUNNY   32  17  54 SW5       30.42S
WILLOW GROVE   NOT AVBL
NORTH PHILA    SUNNY     38  22  52 W7        30.46S
PHILADELPHIA   PTSUNNY   36  22  56 SW6       30.46S
$$




USA.gov is the U.S. government's official web portal to all federal, state and local government web resources and services.